Hourly Data Report for March 16, 2011

HALIFAX STANFIELD INT'L A
NOVA SCOTIA

44°52'48.060" N
63°30'00.050" W
145.40 m
8202250
71395
YHZ

Download Data

Hourly Data (March 2011)
Hourly Data Report for March 16, 2011
TIME
LST
Temp Definition
°C
Dew Point Definition
°C
Rel Hum Definition
%
Precip. Amount Definition
mm

Wind Dir Definition
10's deg

Wind Spd Definition
km/h
Visibility Definition
km
Stn Press Definition
kPa
Hmdx Definition


Wind Chill Definition


Weather Definition


00:00 -4.9 -7.1 85   20 15 24.1 101.31   -10 Clear
01:00 -4.8 -7.3 83   21 13 24.1 101.32   -10 Clear
02:00 -4.8 -7.4 82   21 15 24.1 101.29   -10 Clear
03:00 -5.3 -7.5 84   21 13 24.1 101.24   -10 Clear
04:00 -5.9 -7.9 86   19 11 24.1 101.19   -11 Clear
05:00 -6.3 -8.0 88   19 6 24.1 101.24   -9 Clear
06:00 -7.7 -8.9 91   18 13 24.1 101.20   -13 Mainly Clear
07:00 -6.1 -7.2 92   18 15 24.1 101.20   -12 Mainly Clear
08:00 -2.7 -5.2 83   21 17 24.1 101.19   -8 Mainly Clear
09:00 -0.4 -5.3 69   21 24 24.1 101.17   -6 Mostly Cloudy
10:00 1.0 -5.4 62   20 22 24.1 101.11     Cloudy
11:00 2.6 -6.4 51   21 28 24.1 101.01     Cloudy
12:00 3.3 -5.8 51   20 26 24.1 100.93     Mostly Cloudy
13:00 3.9 -6.9 45   18 30 24.1 100.82     Mostly Cloudy
14:00 4.0 -4.8 53   21 32 24.1 100.74     Mostly Cloudy
15:00 3.6 -5.0 53   20 35 24.1 100.70     Cloudy
16:00 2.5 -2.7 69   20 33 24.1 100.66     Cloudy
17:00 1.8 -2.2 75   18 26 24.1 100.55     Cloudy
18:00 1.4 -1.9 79   18 20 24.1 100.51     Cloudy
19:00 0.9 -2.1 80   17 15 24.1 100.45     Cloudy
20:00 1.0 -0.9 87   16 20 24.1 100.34     Cloudy
21:00 0.9 -0.7 89   15 19 24.1 100.22     Cloudy
22:00 0.8 -0.2 93   13 19 2.0 100.06     Rain, Fog
23:00 1.5 0.7 94   13 19 1.2 99.82     Moderate Rain, Fog

Notes on Data Quality.

Legend

  • E = Estimated
  • M = Missing
  • NA = Not Available*
  • [empty] = Indicates an unobserved value
Date modified: